JAM-E JAM 1

Last updated on Sun Jun 21 2026 00:03:10 GMT+0000 (Coordinated Universal Time)

1 67757U 26028B 26170.61453200 .00000150 00000+0 00000+0 0 9991 2 67757 0.2541 303.2318 0001101 292.6751 287.1607 1.00277035 1143
UTC large
Height (km)
Speed (km/s)
/
Latitude / Longitude
Inclination (degrees)
Orbital Period (minutes)
Azimuth
Elevation
Range (km)
Doppler Factor

Next 0 passes for location: London (51.5072 / 0.1276)

No passes found over London.
JAM-E JAM 1